| |
Missouri Department of Transportation

Social Media Facebook Twitter Flickr Instagram YouTube RSS

Current METAR Information for All MoDOT Locations 
AWOS Home - General Info for all Airports
Current AWOS for all Airports - Current METAR for all Airports
Glossary - Disclaimer - Other Links


Automated Weather Observation System
Date: 02-23-2017
 
Location Current METAR Record
HANNIBAL METAR KHAE 232036Z AUTO 08007KT 10SM OVC010 12/07 A2961 RMK AO2
HARRISONVILLE  No current data available
LEBANON  No current data available
MALDEN  No current data available
MARSHALL METAR KMHL 232054Z AUTO 06008KT 020V080 10SM CLR 16/10 A2953 RMK AO2
MARYVILLE  No current data available
MEXICO  No current data available
MOBERLY  No current data available
NEVADA  No current data available
PIEDMONT  No current data available
SIKESTON  No current data available
SULLIVAN  No current data available
WARSAW METAR KRAW 232039Z AUTO 08008KT 10SM CLR 19/12 A2946 RMK AO2
About Us
How Do I...
Contact Us
Missouri Department of Transportation
Central Office
105 W. Capitol Avenue
Jefferson City, MO 65102
1-888-ASK-MODOT (275-6636)
1-866-831-6277 (Motor Carrier Services)
Driver's License Offices
horz_bar
| | |
Missouri State Government
© 2013 Missouri Department of Transportation. All Rights Reserved.   Privacy Policy.
 
 
 
 
RSS FeedYoutubeBlogFlickrTwitter Facebook